1,427,280개(29575/71364페이지)
LECTURE
번호 제목 글쓴이 조회 날짜
835800 Język Włoski Po Angielsku - Słownik Pols 사진 LauritzenLyon0766 4 2022.02.20 17:12
835799 Język Włoski Po Angielsku - Słownik Pols 사진 LauritzenLyon0766 4 2022.02.20 17:12
835798 3 Practical Ways To Turn Minecraft Serve LammBusk1714 1 2022.02.20 17:02
835797 Another reason to use web-based applicat 사진 CreechFranco2516 0 2022.02.20 17:02
835796 Sixty Ideas To Grow Your Exipure Opinion GustafssonHo1353 2 2022.02.20 17:01
835795 Technique For Maximizing 301 Redirect TuttleEstes7529 5 2022.02.20 17:01
835794 Playing Online Poker And Keeping Track O NealBates0163 2 2022.02.20 17:01
835793 Poker Rules For New Players HessellundLindgreen4497 2 2022.02.20 17:01
835792 DAKING. CO - OFFERING TOOL AND ACCOUNT F GarrettFunder9003 3 2022.02.20 17:01
835791 精彩小说 最強狂兵 烈焰滔滔- 第4909章 调虎离山! 忍一時風平浪靜 恬淡寡 사진 TierneyGalloway9796 6 2022.02.20 17:00
835790 Italian food is packed with health benef 사진 BlandGarrison9495 2 2022.02.20 17:00
835789 สูตรหวยฮานอยวันนี้ 사진 CollierFarah4013 12 2022.02.20 17:00
835788 Język Polski, Religia 사진 UdsenPoe2163 3 2022.02.20 17:00
835787 Poker Head Games In Texas Hold'em FloresNikolajsen5687 7 2022.02.20 17:00
835786 Attempt Some Online Video XXX Marketing FultonHussein6992 6 2022.02.20 16:59
835785 Best Konveksi Medan To Make Your Dreams StuartLyhne6852 1 2022.02.20 16:59
835784 Małżeństwo Z Turkiem. Jak żyją Polki, Kt 사진 HolckMendez4325 4 2022.02.20 16:59
835783 301 Redirect WordPress: Step-by-Step Inf MaurerSigmon9376 6 2022.02.20 16:59
835782 The Benefits Associated With Massage For CharlesFinch3431 6 2022.02.20 16:59
835781 An Online Poker Bonus - Why Do Sites Off WestJacobson1376 5 2022.02.20 16:58